CAPE
60 21 15 14 30 45 52 30 19 2 0 6 31 106 34 0 0 0 69 23 101 29 289 505 494 55 403 276 260 321 348 554 883
22 19 15 16 15 14 15 8 5 3 0 0 0 0 0 0 0 0 0 255 356 259 49 101 422 451 146 412 498 340 310 611 594
22 16 14 14 17 18 13 8 5 1 0 0 0 0 0 0 0 0 0 463 485 410 417 150 10 96 326 194 235 371 396 509 508
6 11 7 6 9 11 9 5 2 0 0 0 0 0 0 0 0 0 0 238 504 488 639 657 407 186 420 421 217 226 450 436 503
6 3 1 0 0 0 0 0 0 0 0 0 0 0 0 0 0 0 0 41 158 373 451 483 657 457 519 627 620 533 674 684 525
0 0 0 0 0 0 0 0 0 0 0 0 0 0 0 0 0 0 0 8 23 61 149 184 203 256 359 430 492 617 528 465 628
0 0 0 0 0 0 0 0 0 0 0 0 0 0 0 0 0 0 0 1 6 10 39 97 81 113 228 247 341 366 615 505 591
0 0 0 0 0 0 0 0 0 0 0 0 0 0 0 0 0 3 10 4 1 1 0 1 49 84 125 269 447 490 430 509 669
0 0 0 0 0 0 0 0 0 0 0 0 0 0 0 0 0 0 7 14 25 145 274 37 123 173 260 337 362 424 450 410 390
0 0 0 0 0 0 0 0 0 0 0 0 0 0 0 0 0 0 5 11 17 24 28 27 34 58 97 164 152 154 178 258 385
0 0 0 0 0 0 0 0 0 0 0 0 0 0 0 0 0 0 0 2 11 20 26 27 27 31 34 27 10 40 123 142 191
0 0 0 0 0 0 0 0 0 0 0 0 0 0 0 0 0 0 0 0 0 1 14 22 25 26 28 27 19 15 18 26 58
0 0 0 0 0 0 0 0 0 0 0 0 0 0 0 0 0 0 0 0 0 0 0 0 6 12 18 17 21 18 25 22 17
0 0 0 0 0 0 0 0 0 0 0 0 0 0 0 0 0 0 0 0 0 0 0 0 0 0 2 6 13 17 16 14 13
0 0 0 0 0 0 0 0 0 0 0 0 0 0 0 0 0 0 0 0 0 0 0 0 0 0 0 3 4 4 25 21 15
0 0 0 0 0 0 0 0 0 0 0 0 0 0 0 0 0 0 0 0 0 0 0 0 0 0 0 3 4 5 8 8 7
0 0 0 0 0 0 0 0 0 0 0 0 0 0 0 0 0 0 0 0 0 0 0 0 0 0 0 0 1 4 7 6 2
0 0 0 0 0 0 0 0 0 0 0 0 0 0 0 0 0 0 0 0 0 0 0 0 0 0 0 0 0 0 2 6 8
0 0 0 0 0 0 0 0 0 0 0 0 0 0 0 0 0 0 0 0 0 0 0 0 0 0 0 0 0 0 0 1 4
0 0 0 0 0 0 0 0 0 0 0 0 0 0 0 0 0 0 0 0 0 0 0 0 0 0 0 0 0 0 0 0 0
CIN
-104 -93 -2 -2 -84 -71 -88 -95 -119 0 0 -137 -130 -62 -137 0 0 0 -62 -52 -3 -31 0 0 0 -14 -0 -3 -2 -1 0 -0 -1
0 0 0 0 0 0 0 0 0 0 0 0 0 0 0 0 0 0 0 -7 -4 -2 -11 -3 -0 0 0 0 0 -0 -0 -0 0
0 0 0 0 0 0 0 0 0 0 0 0 0 0 0 0 0 0 0 -1 -0 -0 0 -1 -7 -4 0 -0 -5 -0 -0 -1 -6
0 0 0 0 0 0 0 0 0 0 0 0 0 0 0 0 0 0 0 -4 0 0 0 0 -1 -0 -0 -3 -4 -8 -1 0 0
0 -0 0 0 0 0 0 0 0 0 0 0 0 0 0 0 0 0 0 -48 -14 -3 0 -0 0 0 0 -0 0 -1 -3 -0 -0
0 0 0 0 0 0 0 0 0 0 0 0 0 0 0 0 0 0 0 -124 -68 -45 -7 -0 -3 -3 -0 -1 -2 -0 -2 -1 -1
0 0 0 0 0 0 0 0 0 0 0 0 0 0 0 0 0 0 0 0 -17 -92 -44 -27 -23 -12 -0 -1 -7 -8 -0 -2 -1
0 0 0 0 0 0 0 0 0 0 0 0 0 0 0 0 0 -0 0 -0 0 0 0 -28 -60 -30 -11 -0 -0 -5 -5 -2 -1
0 0 0 0 0 0 0 0 0 0 0 0 0 0 0 0 0 0 0 0 0 -11 -10 -58 -22 -8 -4 -1 -1 -2 -7 -1 -2
0 0 0 0 0 0 0 0 0 0 0 0 0 0 0 0 0 0 0 0 0 0 0 -44 -81 -57 -32 -16 -20 -25 -2 0 0
0 0 0 0 0 0 0 0 0 0 0 0 0 0 0 0 0 0 0 0 0 0 0 0 0 0 -24 -24 -20 -78 -22 -19 -7
0 0 0 0 0 0 0 0 0 0 0 0 0 0 0 0 0 0 0 0 0 0 0 0 0 0 0 0 0 0 -118 -76 -33
0 0 0 0 0 0 0 0 0 0 0 0 0 0 0 0 0 0 0 0 0 0 0 0 0 0 0 0 0 0 0 0 0
0 0 0 0 0 0 0 0 0 0 0 0 0 0 0 0 0 0 0 0 0 0 0 0 0 0 0 0 0 0 0 0 0
0 0 0 0 0 0 0 0 0 0 0 0 0 0 0 0 0 0 0 0 0 0 0 0 0 0 0 0 0 0 0 0 0
0 0 0 0 0 0 0 0 0 0 0 0 0 0 0 0 0 0 0 0 0 0 0 0 0 0 0 0 0 -0 0 0 0
0 0 0 0 0 0 0 0 0 0 0 0 0 0 0 0 0 0 0 0 0 0 0 0 0 0 0 0 0 0 0 0 0
0 0 0 0 0 0 0 0 0 0 0 0 0 0 0 0 0 0 0 0 0 0 0 0 0 0 0 0 0 0 0 0 0
0 0 0 0 0 0 0 0 0 0 0 0 0 0 0 0 0 0 0 0 0 0 0 0 0 0 0 0 0 0 0 0 0
0 0 0 0 0 0 0 0 0 0 0 0 0 0 0 0 0 0 0 0 0 0 0 0 0 0 0 0 0 0 0 0 0
Wind_Speed
18 19 19 18 17 17 17 17 17 12 11 14 18 17 18 17 11 10 8 5 13 14 13 12 14 14 13 14 13 13 12 12 16
19 19 18 17 17 17 16 16 15 12 12 15 18 18 18 10 10 10 9 4 13 13 13 12 12 13 12 12 12 12 12 10 14
19 18 18 17 16 16 16 15 14 13 14 17 18 19 17 10 10 9 8 11 11 12 12 12 12 11 9 9 10 10 11 13 13
17 17 16 16 16 17 15 14 14 13 14 17 18 19 18 10 7 9 5 15 16 12 14 14 12 11 9 6 9 8 8 11 13
16 16 15 16 16 15 15 16 15 15 15 16 16 17 17 8 7 6 6 13 15 16 15 15 15 12 11 12 10 9 12 12 12
7 14 15 15 14 14 14 14 14 14 15 16 16 15 6 7 5 4 11 10 13 13 12 12 14 13 12 11 9 9 9 10 11
7 10 13 13 13 14 14 15 14 10 4 5 10 6 7 6 6 5 6 7 10 12 9 11 12 12 12 10 9 8 10 10 9
3 3 3 4 9 4 6 6 5 7 5 5 6 6 6 5 6 12 19 9 9 7 5 6 9 9 10 11 11 11 9 8 8
3 3 4 5 3 5 5 4 6 7 7 7 7 6 6 5 5 12 21 22 24 21 20 13 11 10 8 15 18 16 13 9 8
4 4 4 4 4 4 5 5 5 6 6 6 7 6 7 6 5 6 21 22 22 22 21 20 21 20 20 19 18 17 15 15 11
5 5 4 4 4 4 4 5 5 5 5 6 6 7 7 7 7 5 8 19 20 21 21 20 20 20 20 18 18 18 16 15 14
6 4 4 3 3 6 5 5 5 5 5 7 6 6 7 7 7 6 6 7 17 18 18 19 19 19 19 18 18 17 15 16 17
6 4 4 3 4 4 4 4 5 5 5 4 5 5 6 7 7 6 5 5 5 10 15 17 17 18 18 17 16 15 17 19 19
6 4 4 5 4 4 4 4 4 4 4 6 5 5 5 6 6 7 6 6 5 4 11 14 16 17 16 16 15 15 16 16 17
6 5 5 5 5 4 4 5 6 4 3 6 6 5 4 5 5 4 4 5 6 5 5 5 6 16 17 16 14 12 16 17 18
6 4 5 5 5 5 4 3 6 5 2 4 4 4 5 5 4 4 4 5 5 5 5 4 4 5 16 16 14 12 11 14 15
6 5 5 6 5 6 5 4 3 3 3 4 3 3 3 3 3 3 3 5 3 5 5 6 6 5 4 10 14 14 12 11 10
6 6 5 5 4 4 4 4 4 3 3 5 4 3 3 2 3 3 3 4 3 4 4 5 5 5 4 6 9 12 11 10 9
6 6 6 6 4 5 5 4 4 4 3 3 4 5 3 3 2 2 2 3 3 3 3 3 4 5 4 8 9 9 9 9 9
6 6 6 6 4 5 6 5 6 4 4 3 2 4 4 4 3 2 0 2 2 1 1 3 3 4 4 3 7 10 9 9 9
Wind_Direction
87 87 85 81 81 80 81 79 80 77 62 57 56 60 62 60 53 41 24 78 90 90 88 84 90 90 83 95 94 89 86 99 101
92 89 86 86 83 81 79 79 79 77 78 69 66 64 61 61 54 41 21 34 100 94 91 84 83 87 92 90 93 87 83 108 109
95 91 89 83 80 83 81 77 75 71 75 74 71 66 64 50 50 42 24 51 86 99 99 93 86 87 89 96 97 94 89 89 115
101 98 95 92 87 81 80 82 82 78 74 76 74 68 62 52 38 31 13 42 61 81 91 92 91 79 67 128 108 97 109 103 99
94 92 95 96 96 95 89 82 78 75 74 70 71 73 63 49 38 19 15 58 51 54 72 78 84 82 68 93 102 90 118 114 105
67 93 90 87 89 91 92 97 82 70 66 72 70 70 60 51 27 8 22 54 70 54 59 71 74 75 71 74 83 97 108 117 112
90 91 89 85 80 77 78 79 73 70 65 66 63 67 65 50 19 13 60 47 67 74 60 72 76 74 76 76 71 90 108 121 120
74 45 34 43 71 58 65 58 55 57 55 48 67 69 77 58 44 33 38 117 79 70 82 80 80 77 83 86 90 80 83 108 123
98 85 74 63 47 64 59 59 60 54 51 58 65 57 77 75 58 41 44 53 51 57 56 90 78 81 106 91 77 74 78 81 84
99 81 73 75 74 78 82 83 81 77 71 60 61 55 68 68 67 58 49 48 52 52 53 64 66 65 65 67 67 69 63 62 70
98 94 85 72 78 78 82 88 87 74 80 69 62 60 54 52 47 48 50 51 47 50 50 52 57 60 63 63 63 60 58 60 56
108 102 88 84 76 74 69 67 76 77 71 74 71 71 65 62 57 49 49 40 47 50 43 47 50 52 57 55 53 51 61 64 57
98 94 86 85 81 85 74 85 78 84 81 75 55 66 72 70 63 58 50 52 39 36 51 48 46 45 43 52 52 52 54 60 54
101 99 97 86 74 77 85 64 96 88 89 88 69 53 57 59 63 54 51 50 47 39 45 49 51 46 44 48 52 52 57 58 55
102 93 88 88 83 73 72 86 60 78 102 88 76 71 76 79 81 74 61 58 51 45 44 37 25 48 47 48 48 45 62 52 53
105 98 96 91 87 98 101 103 87 51 49 92 45 41 57 63 62 72 67 55 57 56 50 48 42 27 45 45 42 45 54 49 43
112 106 102 96 90 75 72 76 98 84 34 124 122 119 14 26 50 67 74 55 53 52 51 51 53 45 36 50 47 38 36 33 35
108 102 101 94 85 86 80 77 98 121 38 60 132 120 157 118 359 32 56 64 55 48 57 57 66 70 60 54 36 42 35 33 32
91 95 92 96 96 92 90 74 82 102 121 57 42 59 121 144 109 357 359 29 74 72 47 50 59 73 61 49 46 38 27 25 18
92 92 90 89 83 83 84 72 69 74 93 91 99 59 60 56 122 150 23 6 360 360 97 91 79 81 94 55 24 23 19 17 10